Theta_e
318 318 314 309 299 295 291 294 297 296 296 298 299 299 299 298 299 297 307 305 305 307 312 321 334 336 340 341 341 344 344 345 345 345 345 345 346 346 347 347 348 346 347 349 349 349 349 350 349
315 315 310 300 294 290 291 294 294 297 298 297 297 297 297 297 299 301 303 303 301 304 308 318 329 330 331 333 334 335 337 339 341 342 342 342 342 342 343 344 344 345 346 346 347 347 350 350 350
314 310 306 295 290 290 291 294 295 295 296 297 296 297 297 297 299 300 301 300 298 300 305 317 323 324 325 326 327 329 331 333 331 332 335 337 338 338 338 338 339 340 343 345 346 346 348 348 349
309 306 298 293 293 293 295 295 296 295 296 297 296 295 296 299 300 300 300 298 297 297 302 312 317 319 321 321 322 323 325 325 325 326 328 327 327 331 330 332 333 335 337 340 343 344 345 345 346
302 299 293 291 292 294 294 296 296 295 296 296 296 295 294 297 298 297 296 296 296 296 299 306 312 314 316 317 317 318 318 318 318 319 320 320 324 319 318 321 324 326 328 331 335 338 340 342 344
301 297 292 290 291 294 295 296 296 295 295 294 295 293 294 298 295 296 295 295 295 296 298 299 305 309 310 311 312 313 313 313 313 313 313 315 316 312 313 315 317 319 321 322 326 331 333 336 339
299 294 292 290 290 293 295 295 294 294 294 295 295 293 294 294 296 296 296 295 295 296 296 297 298 301 305 307 307 308 308 309 310 309 309 309 309 309 309 310 313 314 315 316 321 325 325 327 333
296 295 291 289 290 292 295 295 295 296 295 295 296 294 293 295 295 295 294 293 294 295 294 294 296 298 299 300 304 305 305 306 306 307 306 305 305 305 305 306 309 311 311 312 317 318 318 317 318
301 293 290 291 291 294 294 294 294 294 293 293 295 293 294 294 293 291 291 291 291 292 293 293 294 295 297 298 298 299 301 302 302 302 304 303 302 302 301 302 304 307 308 309 313 311 311 310 310
295 291 293 294 293 294 294 294 294 293 292 292 291 292 292 293 291 290 290 289 289 290 291 292 293 293 295 295 295 296 296 296 297 298 299 301 300 300 299 299 300 302 304 304 308 308 308 307 307
295 291 294 295 296 296 295 293 293 292 291 294 293 291 291 291 290 290 289 289 289 289 290 290 291 292 293 294 294 294 295 295 296 296 297 299 298 298 297 297 296 299 300 300 302 303 303 304 305
293 294 295 297 297 295 294 293 292 291 296 294 294 292 291 290 289 288 288 288 288 288 289 289 290 291 292 293 293 293 294 294 294 294 296 296 295 295 294 294 295 296 296 298 299 300 302 303 304
293 293 296 296 296 295 294 293 293 291 294 293 291 290 290 290 288 288 289 288 288 288 288 289 290 291 291 292 292 292 292 293 293 294 295 294 293 292 291 292 293 293 295 294 295 297 299 301 302
293 294 295 294 295 295 293 292 292 293 289 289 288 289 289 289 288 287 286 286 287 287 288 289 290 290 291 291 291 291 292 292 292 292 293 292 292 290 290 290 291 291 293 291 292 294 297 299 301
293 291 292 292 293 293 293 291 290 293 288 288 287 287 287 288 287 287 287 286 287 288 288 288 289 289 290 290 290 291 291 291 290 291 291 291 290 289 288 289 289 290 290 289 290 292 295 297 299
290 289 288 291 292 292 292 289 293 290 287 288 286 285 286 287 287 286 287 286 286 287 287 288 289 289 289 289 289 290 290 290 289 289 289 289 288 288 287 287 287 288 288 288 288 289 290 292 294
288 286 286 289 291 291 290 289 292 289 286 288 286 285 285 286 284 285 286 286 285 286 286 287 288 288 288 288 289 288 289 289 288 287 287 288 287 287 286 286 286 287 286 286 287 287 288 288 290
285 285 286 285 289 289 288 288 293 292 287 289 288 286 285 285 286 285 285 285 285 286 286 286 287 287 287 288 287 287 287 287 286 286 286 287 286 286 284 285 285 285 284 284 285 286 288 288 290
287 286 286 287 288 287 287 288 291 294 288 288 287 285 285 285 287 284 284 284 284 285 285 285 285 286 286 285 284 284 284 284 285 285 285 284 284 284 283 284 284 284 283 283 284 285 286 288 290
286 284 284 286 286 286 285 286 290 292 292 294 290 286 286 285 282 283 283 283 284 284 284 284 285 285 285 284 284 284 283 283 284 284 284 283 283 283 282 282 283 283 282 282 283 284 284 283 285
284 284 283 285 284 284 282 282 283 287 289 289 289 289 287 286 284 282 282 282 283 283 284 284 284 284 284 284 283 282 282 282 281 282 281 282 282 282 282 282 282 282 282 281 282 283 281 280 284
284 286 284 283 282 279 283 280 282 286 288 288 288 287 288 286 286 283 283 282 282 283 284 284 284 283 283 283 282 280 279 278 279 280 280 280 281 281 281 281 281 281 281 280 282 281 281 281 280
286 284 283 282 280 278 279 276 282 281 284 289 290 288 288 287 286 283 283 283 283 283 283 283 283 282 282 282 281 280 278 278 279 278 278 278 279 280 280 280 280 280 280 280 280 280 279 280 280
286 283 281 278 277 273 281 280 280 281 284 287 288 288 288 285 284 284 284 284 283 283 283 282 281 281 281 281 280 278 276 276 276 276 276 276 277 278 278 279 279 279 279 279 279 279 279 279 280
284 283 278 275 273 276 276 275 284 285 285 288 289 288 286 285 282 282 282 282 283 281 282 282 280 279 279 279 277 277 275 275 274 274 274 274 275 275 276 277 277 278 278 278 279 278 278 279 280
282 284 279 272 272 279 273 275 283 285 289 286 284 284 282 283 282 282 282 282 283 282 281 281 280 278 277 276 276 275 274 274 274 274 273 273 273 274 275 276 276 277 277 278 278 278 278 279 279
281 280 283 276 265 272 280 282 284 286 285 283 282 281 282 283 281 281 282 282 282 282 281 280 278 277 276 275 274 273 273 272 272 272 272 272 273 274 274 275 274 275 276 276 276 277 277 277 278
282 283 279 278 273 268 277 281 283 284 286 286 285 283 284 283 280 280 281 282 282 282 281 279 277 276 275 274 273 272 271 271 271 271 271 271 272 272 272 273 273 274 274 275 275 275 276 276 277
279 279 279 280 278 273 272 281 284 286 287 287 288 285 285 284 281 280 281 281 282 281 279 277 275 274 273 273 272 271 270 270 270 270 270 271 271 271 271 271 271 272 272 273 273 273 274 274 275
280 282 283 279 277 275 275 281 286 287 288 287 287 285 285 283 281 280 280 281 280 279 277 275 274 273 272 271 270 270 269 269 269 269 270 270 270 270 270 270 270 270 270 270 270 270 271 271 272
Wind_Speed
2 4 2 4 4 5 0 3 0 3 3 0 2 3 5 3 3 3 6 5 5 4 8 10 14 14 16 17 18 18 18 17 17 16 16 16 15 13 12 12 10 11 12 13 12 12 10 7 5
3 2 4 3 5 3 3 3 4 4 5 7 5 3 2 2 1 5 4 5 5 4 8 9 13 16 16 16 17 18 18 17 19 18 18 18 17 17 18 17 15 13 12 13 13 14 12 9 8
4 4 3 5 3 4 4 4 5 2 7 3 4 2 5 4 3 5 3 4 6 8 7 8 14 14 15 16 17 17 18 18 18 17 16 16 18 18 18 17 17 17 16 15 15 14 14 12 10
3 4 4 5 2 3 2 5 5 7 2 2 3 3 0 1 6 5 6 5 7 6 5 7 11 12 14 15 16 17 16 17 17 16 17 18 16 17 20 20 19 18 18 18 16 16 16 14 12
4 3 4 3 2 2 4 4 8 7 4 4 5 4 2 2 5 7 7 5 6 5 6 7 12 13 14 15 16 16 16 16 16 16 16 16 17 18 17 17 17 18 18 19 19 18 18 15 13
4 3 4 2 4 3 3 4 7 5 4 3 3 6 5 4 9 7 7 6 4 6 5 6 9 13 15 15 15 15 15 15 15 16 15 14 15 16 16 16 16 16 17 18 18 18 19 19 16
6 4 3 2 3 2 5 8 5 6 7 6 5 7 2 7 8 8 7 6 6 6 7 6 6 7 12 14 14 14 15 14 15 15 16 16 16 17 17 16 16 16 16 17 15 16 18 19 18
5 5 2 3 3 5 4 3 2 3 5 3 4 7 5 8 11 8 6 6 7 6 6 6 5 5 5 6 13 14 15 15 14 14 14 13 14 15 18 17 18 18 17 17 15 15 17 18 18
3 5 1 4 5 3 3 3 1 1 4 3 6 3 2 11 12 8 6 5 5 5 5 4 5 5 5 7 9 11 14 14 13 12 14 10 8 9 12 14 17 17 18 19 15 16 16 16 15
5 4 6 5 5 2 4 4 6 3 2 5 4 3 4 13 12 13 10 9 5 4 4 4 4 5 5 6 7 6 6 6 7 8 8 6 8 8 9 10 15 16 16 16 17 17 16 11 8
2 4 3 3 4 3 3 3 6 5 6 11 11 8 11 11 12 10 6 6 6 4 3 4 4 4 6 5 4 3 4 4 5 8 8 7 7 7 7 6 6 7 12 8 11 11 8 11 8
1 1 2 3 2 3 4 6 4 9 7 1 7 13 14 15 14 12 11 10 9 7 5 4 4 5 5 3 3 4 4 4 5 6 8 6 5 7 7 6 8 7 7 9 9 7 10 11 12
2 2 2 4 5 4 3 7 6 10 9 1 6 12 17 14 11 7 9 8 8 8 6 5 4 5 4 5 4 4 5 5 6 6 6 6 7 7 7 7 7 8 8 9 9 9 9 10 12
2 3 6 3 4 3 4 3 1 2 5 5 9 13 14 16 14 7 10 10 9 8 7 5 5 5 5 5 5 4 4 4 3 3 5 8 6 7 7 7 8 8 8 9 9 10 10 10 11
1 4 5 3 1 3 5 8 11 4 3 6 9 10 12 14 13 16 13 11 11 8 8 7 6 4 5 4 3 2 1 2 3 3 5 6 6 7 7 6 7 7 9 10 9 10 10 10 10
1 4 3 2 3 2 4 12 7 5 7 10 10 11 13 17 14 11 11 9 9 9 9 7 5 5 4 3 1 0 0 1 2 3 3 4 5 6 7 6 6 7 7 7 8 9 9 10 10
6 3 4 7 6 1 6 11 6 5 7 11 11 13 14 12 9 13 12 11 12 12 11 8 6 6 4 2 2 3 3 2 3 3 3 4 6 6 7 6 6 8 7 7 7 8 9 10 10
6 4 5 7 4 4 5 17 20 8 10 18 14 13 14 16 21 13 13 11 11 11 9 8 6 5 3 1 3 3 3 3 3 3 4 6 6 7 7 6 6 7 6 7 7 10 9 10 10
4 5 7 5 5 4 11 16 20 20 10 15 14 12 16 21 12 11 12 12 10 9 9 8 8 5 3 2 1 2 2 3 3 3 5 7 7 7 8 6 7 7 7 9 9 9 11 8 9
4 4 8 7 2 6 9 18 18 20 20 19 16 12 16 13 12 14 14 11 12 12 11 9 8 7 5 3 2 2 2 3 4 4 4 6 8 9 8 8 8 8 8 10 10 10 9 8 6
5 7 5 9 6 4 8 11 8 6 7 9 9 12 13 18 18 17 19 18 14 13 13 11 10 8 6 6 2 1 2 3 3 3 6 6 9 10 9 9 9 9 8 8 10 9 11 10 8
4 7 2 3 3 5 4 17 3 7 12 8 9 10 14 15 15 17 20 18 17 14 11 10 9 8 7 8 5 4 3 3 2 4 7 9 9 10 9 9 9 10 8 11 10 9 9 11 13
7 4 4 1 3 3 4 6 4 3 8 17 9 10 11 13 16 19 21 22 17 14 12 10 8 6 5 6 5 3 4 4 6 6 10 10 10 9 10 10 10 11 9 11 12 12 11 10 13
6 5 4 4 2 2 9 11 6 7 11 9 6 6 7 8 13 14 16 16 16 12 12 11 10 7 6 5 5 4 6 6 6 6 7 7 7 7 9 10 10 11 12 12 12 13 15 14 15
3 6 6 6 3 11 5 3 15 7 12 13 11 7 6 7 10 13 17 17 17 17 14 11 11 8 8 6 4 5 6 6 7 8 7 10 8 7 9 11 12 11 13 14 14 15 15 15 14
7 10 9 10 5 16 2 11 11 17 13 6 7 7 6 7 9 15 18 18 18 17 15 13 11 7 7 5 5 4 4 4 5 7 7 7 8 9 12 12 13 16 16 14 15 13 13 15 14
6 7 3 5 2 3 7 14 7 8 10 6 10 7 11 9 11 13 14 18 18 18 17 14 11 8 8 6 3 3 4 5 6 8 8 7 9 10 12 14 16 16 16 17 17 13 15 15 15
5 6 4 2 3 7 13 25 19 11 15 12 12 14 12 7 9 11 14 16 16 16 14 13 10 9 8 6 4 2 4 5 6 7 8 9 11 12 14 15 15 16 16 17 17 15 16 16 14
5 4 3 2 5 7 7 22 5 8 11 12 14 10 10 9 10 13 13 14 15 13 14 12 10 10 8 6 4 3 4 4 5 7 8 9 11 13 14 15 16 16 17 17 16 18 18 19 19
3 12 13 8 9 6 2 32 1 2 9 9 8 9 7 7 10 11 12 14 16 17 15 13 10 9 8 6 4 4 3 4 5 7 9 10 11 13 14 15 16 17 18 17 18 19 18 20 20
Wind_Direction
75 113 90 44 61 64 157 231 252 145 155 295 83 166 163 63 161 184 162 54 24 353 338 342 36 42 39 44 42 44 44 44 39 35 33 28 19 5 345 330 321 318 320 321 320 320 317 313 290
106 107 47 81 89 80 256 244 207 199 139 132 93 98 99 144 166 146 149 29 35 11 359 347 42 50 50 48 48 47 47 45 41 39 38 37 29 23 20 15 4 346 326 318 314 315 315 316 309
122 47 80 93 112 158 191 207 162 98 143 163 115 19 153 172 149 143 100 81 49 37 8 10 48 50 55 55 54 53 53 50 46 39 36 34 33 33 28 20 12 6 355 334 320 313 309 315 311
110 25 46 78 151 211 208 163 149 132 220 176 134 154 179 326 160 146 114 99 77 51 22 26 55 57 58 56 55 57 57 56 51 47 48 43 36 34 32 28 20 15 7 2 348 330 317 314 305
39 58 58 82 247 230 241 175 165 169 174 159 171 189 224 195 124 123 116 103 93 64 44 20 55 56 57 57 57 56 55 53 51 49 49 46 53 42 35 32 26 18 8 4 359 353 348 327 313
47 97 57 240 242 227 253 175 161 174 163 147 145 151 216 146 151 152 131 123 103 77 61 52 39 51 53 52 54 54 52 53 51 51 50 49 49 41 36 32 25 21 15 9 2 358 354 348 338
115 86 204 210 251 238 216 150 181 174 160 225 141 158 238 189 175 151 141 111 87 67 63 55 52 52 49 54 51 49 45 44 45 45 43 39 37 35 31 28 23 16 10 4 3 3 360 355 346
105 90 122 240 222 261 176 120 36 161 209 73 162 207 224 195 155 140 120 96 85 76 69 57 50 50 60 50 47 46 42 40 36 34 37 36 34 32 25 19 14 9 6 1 1 360 356 352 348
135 71 216 236 167 246 160 159 24 358 128 232 206 185 292 133 135 129 135 121 103 83 69 59 50 42 35 48 42 41 39 39 33 27 21 20 23 22 23 16 12 8 3 356 355 352 351 348 346
85 111 216 192 201 259 193 186 175 169 191 245 261 213 114 141 154 163 170 159 146 128 89 71 69 61 55 61 49 49 49 46 38 29 21 17 16 14 13 12 9 3 0 355 348 344 343 342 340
178 171 214 233 222 196 184 225 159 161 234 221 210 164 160 167 176 172 157 156 153 138 111 83 82 79 68 61 55 43 42 36 30 27 22 17 10 7 4 1 0 0 357 352 344 339 337 330 324
140 216 204 280 229 168 217 130 219 197 229 51 222 168 167 179 181 172 169 169 162 149 124 107 101 104 90 90 71 60 48 39 32 21 20 18 11 5 0 1 355 357 352 345 340 330 323 320 313
163 232 243 288 285 257 141 238 237 245 237 220 140 162 180 183 179 179 175 164 154 151 153 153 129 96 86 74 58 47 37 33 20 19 19 19 10 2 353 354 355 352 349 347 334 326 316 311 307
170 278 273 309 269 254 234 286 340 236 138 164 170 187 187 185 179 163 175 172 172 159 160 153 103 88 79 66 50 41 35 25 19 15 18 21 11 358 350 346 351 349 347 336 329 327 317 309 306
127 318 315 237 223 249 176 281 232 227 178 199 203 193 191 197 182 189 181 177 169 167 156 154 127 112 98 95 72 62 49 22 12 0 9 17 6 347 337 337 345 347 334 327 327 325 321 311 307
83 62 25 232 172 248 154 272 266 177 179 226 214 203 200 206 202 190 185 170 165 154 164 161 145 129 117 119 91 353 323 330 350 353 343 350 346 337 334 332 333 335 329 328 327 320 318 313 310
358 252 240 301 206 227 175 273 229 171 214 241 219 213 208 208 206 200 183 171 169 169 164 162 159 158 142 112 4 323 315 325 317 314 314 304 319 327 328 321 320 332 327 322 315 316 306 311 308
228 240 247 241 220 211 226 259 278 244 223 247 226 212 209 213 213 193 185 177 170 167 164 159 163 160 130 78 340 314 292 271 287 292 294 317 312 304 305 306 311 326 320 315 310 308 307 300 305
168 198 234 250 239 226 247 254 262 275 244 257 240 208 211 219 208 178 180 177 169 171 163 167 163 173 156 178 250 258 247 263 258 276 274 293 295 295 311 310 313 321 322 317 307 306 303 305 315
166 206 258 283 237 193 272 263 265 259 261 259 249 223 222 213 187 186 181 180 183 177 178 169 174 173 188 180 201 239 277 277 263 258 259 294 288 304 313 316 311 312 316 312 302 302 311 296 289
203 191 228 236 335 253 302 265 237 285 255 266 223 224 213 209 200 190 187 188 183 184 181 179 175 180 189 185 178 275 293 277 301 310 305 291 290 300 304 305 305 303 301 299 294 295 300 298 300
225 208 206 287 17 257 22 292 238 244 281 257 233 207 223 207 204 195 190 190 190 188 184 176 171 176 184 173 179 201 232 269 246 281 279 287 283 290 288 285 284 284 287 290 284 285 282 285 276
222 125 142 134 215 7 239 269 215 8 274 267 258 218 220 207 199 196 195 194 185 182 179 177 169 174 169 173 182 207 248 263 272 278 284 282 280 276 285 283 279 280 284 284 282 282 277 267 269
135 95 68 63 101 264 223 200 167 184 211 258 258 228 222 202 200 200 196 189 185 177 175 170 167 170 168 176 189 207 242 258 274 280 281 281 285 283 281 285 288 285 285 284 283 278 267 268 263
101 69 327 318 346 245 136 233 257 234 229 219 226 219 217 220 192 189 187 188 186 183 177 171 168 171 170 170 188 216 240 256 274 286 288 297 305 304 299 302 300 291 285 284 279 274 268 266 263
174 167 169 238 233 287 69 245 269 219 238 215 255 258 246 222 199 199 194 191 192 183 176 172 166 163 167 172 200 222 251 250 270 278 282 290 296 300 303 296 287 282 278 275 273 271 268 268 264
182 193 174 96 138 317 239 262 283 227 251 237 238 234 250 222 202 205 197 196 189 183 181 170 167 162 169 179 197 234 259 285 289 295 297 303 307 299 295 291 286 283 282 279 279 271 271 271 270
172 162 88 359 243 251 268 273 270 218 233 227 240 222 241 234 200 202 200 197 194 184 167 166 165 166 158 164 183 223 293 283 291 302 308 309 295 293 292 292 290 290 288 286 282 276 273 271 267
144 200 198 166 162 193 269 268 207 207 199 206 231 211 212 218 208 204 200 193 189 177 162 164 153 151 165 163 168 234 260 290 311 301 298 293 295 296 296 296 295 293 291 288 286 281 280 273 272
198 196 177 195 226 244 192 270 54 321 189 203 221 211 215 219 213 202 193 186 183 180 166 157 153 157 162 166 178 222 262 302 300 286 292 293 299 298 297 295 296 297 293 294 290 286 282 279 276